User: anonymous   Login
Location: Newark
(51.1667°N, 4.4833°E)
Time: 21:52:20
(UTC+00:00)
Language:

DIWATA 2B (PO-101) - Orbit

View from above orbital plane
View from above orbital plane
View from above satellite
View from above satellite

Ground track
Ground track

The orbit data is extracted from the following two-line orbital elements,

1 43678U 18084H   19348.38648413 -.00000144  00000-0 -86152-5 0  9999
2 43678  97.8675 102.0493 0011344  74.0277 286.2185 14.91591161 61288
Epoch (UTC): 14 December 2019 09:16:32
Eccentricity: 0.0011344
inclination: 97.8675°
perigee height: 585 km
apogee height: 601 km
right ascension of ascending node: 102.0493°
argument of perigee: 74.0277°
revolutions per day: 14.91591161
mean anomaly at epoch: 286.2185°
orbit number at epoch: 6128

The dashed part of the orbit path shows where the satellite is in the earth's shadow,  

DLR